Location: Palomar Mountain Lodge
(33.3110°N, 116.8495°W)
Time: 08:35:35
(UTC-07:00)

RS-44 - Visible Passes

Search period start: 19 April 2026 00:00
Search period end: 29 April 2026 00:00
Orbit: 1175 x 1510 km, 82.5° (Epoch: 19 April)

Date Brightness Start Highest point End Pass type
(mag) Time Alt. Az. Time Alt. Az. Time Alt. Az.
19 Apr ? 00:38:17 10° NNW 00:43:37 33° NW 00:43:37 33° NW visible
19 Apr ? 23:08:16 10° N 23:14:48 48° NNE 23:14:48 48° NNE visible
20 Apr ? 01:02:59 10° NNW 01:07:24 23° WNW 01:07:24 23° WNW visible
20 Apr ? 21:41:20 10° NNE 21:45:59 16° ENE 21:45:59 16° ENE visible
20 Apr ? 23:31:56 10° N 23:38:35 56° N 23:38:35 56° N visible
21 Apr ? 01:28:44 10° NW 01:31:11 14° WNW 01:31:11 14° WNW visible
21 Apr ? 22:03:31 10° NNE 22:09:47 26° ENE 22:09:47 26° ENE visible
21 Apr ? 23:55:54 10° NNW 00:02:23 48° NW 00:02:23 48° NW visible
22 Apr ? 22:26:32 10° N 22:33:36 40° ENE 22:33:36 40° ENE visible
23 Apr ? 00:20:14 10° NNW 00:26:12 33° WNW 00:26:12 33° WNW visible
23 Apr ? 22:49:58 10° N 22:57:25 60° NE 22:57:25 60° NE visible
24 Apr ? 00:45:07 10° NW 00:50:01 21° WNW 00:50:01 21° WNW visible
24 Apr ? 21:22:34 10° NNE 21:28:02 18° ENE 21:28:39 18° ENE visible
24 Apr ? 23:13:43 10° N 23:21:15 68° NNW 23:21:15 68° NNW visible
25 Apr ? 01:11:40 10° WNW 01:13:51 12° WNW 01:13:51 12° WNW visible
25 Apr ? 21:45:02 10° NNE 21:52:21 29° ENE 21:52:29 29° ENE visible
25 Apr ? 23:37:46 10° NNW 23:45:05 49° WNW 23:45:05 49° WNW visible
26 Apr ? 22:08:10 10° N 22:16:20 47° ENE 22:16:20 47° ENE visible
27 Apr ? 00:02:13 10° NNW 00:08:57 31° WNW 00:08:57 31° WNW visible
27 Apr ? 20:42:59 10° NE 20:45:21 11° ENE 20:47:36 10° E visible
27 Apr ? 22:31:41 10° N 22:40:12 74° ENE 22:40:12 74° ENE visible
28 Apr ? 00:27:22 10° NW 00:32:41 18° W 00:32:49 18° W visible
28 Apr ? 21:03:54 10° NNE 21:09:51 20° ENE 21:11:28 19° E visible
28 Apr ? 22:55:30 10° N 23:04:05 72° W 23:04:05 72° W visible
